K7OLI-13 Weather Reports


time (UTC)temp
C
wind
direction
speed
KPH
gust
KPH
rain 1hr
cm
rain 24hr
cm
rain mn
cm
humidity
%
barometer
mb
20260905174521 17 80 4.8 8.0 0.00 0.00 0.00 74
20260905173550 17 82 8.0 9.7 0.00 0.00 0.00 75
20260905172519 17 38 6.4 8.0 0.00 0.00 0.00 74
20260905171527 18 61 4.8 8.0 0.00 0.00 0.00 75
20260905170535 17 150 3.2 6.4 0.00 0.00 0.00 77
20260905165527 17 112 1.6 4.8 0.00 0.00 0.00 79
20260905164535 16 62 3.2 4.8 0.00 0.00 0.00 82
20260905163543 16 46 4.8 6.4 0.00 0.00 0.00 82
20260905162530 16 15 3.2 6.4 0.00 0.00 0.00 81
20260905161519 16 44 1.6 3.2 0.00 0.00 0.00 85
20260905160608 15 61 3.2 6.4 0.00 0.00 0.00 88
20260905155536 15 61 4.8 6.4 0.00 0.00 0.00 88
20260905154527 15 77 6.4 9.7 0.00 0.00 0.00 88
20260905153533 15 118 6.4 8.0 0.00 0.00 0.00 89
20260905152522 14 114 4.8 6.4 0.00 0.00 0.00 90
20260905151551 13 91 3.2 6.4 0.00 0.00 0.00 93
20260905150520 13 70 3.2 6.4 0.00 0.05 0.00 94
20260905145528 13 89 4.8 4.8 0.00 0.08 0.00 95
20260905144536 13 0.0 0.0 0.00 0.08 0.00 96
20260905143527 13 57 3.2 4.8 0.00 0.08 0.00 96
20260905142614 13 75 1.6 3.2 0.00 0.08 0.00 98
20260905141523 13 0.0 0.0 0.00 0.08 0.00 99
20260905140531 12 0.0 0.0 0.00 0.08 0.00 99
20260905135520 12 0.0 0.0 0.00 0.08 0.00 99
20260905134528 12 0.0 0.0 0.00 0.10 0.00 99
20260905133556 12 0.0 0.0 0.00 0.10 0.00 99
20260905132527 12 0.0 0.0 0.00 0.10 0.00 99
20260905131534 12 0.0 0.0 0.00 0.10 0.00 99
20260905130543 12 0.0 0.0 0.00 0.10 0.00 99
20260905125531 12 0.0 0.0 0.00 0.10 0.00 99
20260905124522 12 46 3.2 6.4 0.00 0.10 0.00 99
20260905123529 12 0.0 0.0 0.00 0.10 0.00 99
20260905122537 12 0.0 0.0 0.00 0.10 0.00 99
20260905121527 12 45 1.6 3.2 0.00 0.10 0.00 99
20260905120535 12 68 3.2 4.8 0.00 0.10 0.00 99
20260905115524 12 0.0 0.0 0.00 0.10 0.00 99
20260905114532 12 40 1.6 4.8 0.00 0.10 0.00 99
20260905113521 12 62 3.2 4.8 0.00 0.10 0.00 99
20260905112529 12 29 0.0 4.8 0.00 0.10 0.00 99
20260905111537 12 0.0 0.0 0.00 0.10 0.00 99
20260905110527 12 36 1.6 3.2 0.00 0.10 0.00 99
20260905105535 12 0.0 3.2 0.00 0.10 0.00 99
20260905104524 12 0.0 0.0 0.00 0.10 0.00 99
20260905103532 12 39 1.6 3.2 0.00 0.10 0.00 99
20260905102527 12 51 1.6 4.8 0.00 0.13 0.00 99
20260905101550 12 45 0.0 3.2 0.00 0.15 0.00 99
20260905100519 12 0.0 0.0 0.00 0.15 0.00 99
20260905095548 12 0.0 0.0 0.00 0.18 0.00 99
20260905094535 12 0.0 0.0 0.00 0.18 0.00 99
20260905093527 12 0.0 0.0 0.00 0.18 0.00 99
20260905092533 12 0.0 0.0 0.00 0.18 0.00 99
20260905091522 12 0.0 0.0 0.00 0.20 0.00 99
20260905090530 12 0.0 0.0 0.00 0.23 0.00 99
20260905085521 12 0.0 0.0 0.00 0.28 0.00 99
20260905084548 12 0.0 0.0 0.00 0.30 0.00 98
20260905083556 12 0.0 0.0 0.00 0.36 0.00 98
20260905082527 12 0.0 0.0 0.00 0.38 0.00 98
20260905081533 13 45 3.2 3.2 0.00 0.41 0.00 98
20260905080542 13 45 3.2 4.8 0.00 0.41 0.00 97
20260905075551 13 42 4.8 6.4 0.00 0.41 0.00 97
20260905074520 13 53 4.8 4.8 0.00 0.41 0.00 97
20260905073548 13 61 3.2 4.8 0.00 0.41 0.00 97
20260905072556 13 57 4.8 6.4 0.00 0.41 0.00 97
20260905071527 13 46 4.8 6.4 0.00 0.41 0.00 96
20260905070536 13 47 4.8 6.4 0.00 0.41 0.00 96
20260905065521 13 48 4.8 6.4 0.00 0.41 0.41 95
20260905064530 13 50 4.8 6.4 0.00 0.41 0.41 95
20260905063519 13 77 3.2 4.8 0.00 0.41 0.41 94
20260905062546 13 62 3.2 4.8 0.00 0.41 0.41 93
20260905061535 13 59 4.8 6.4 0.00 0.41 0.41 93
20260905060527 13 90 0.0 3.2 0.00 0.41 0.41 92
20260905055535 13 42 3.2 4.8 0.00 0.41 0.41 92
20260905054542 13 42 4.8 8.0 0.00 0.41 0.41 92
20260905053530 13 48 4.8 8.0 0.00 0.41 0.41 93
20260905052520 13 34 4.8 6.4 0.00 0.41 0.41 93
20260905051528 13 46 3.2 4.8 0.00 0.41 0.41 92
20260905050556 13 39 3.2 4.8 0.00 0.41 0.41 93
20260905045550 13 42 1.6 3.2 0.00 0.41 0.41 94
20260905044535 13 23 3.2 3.2 0.00 0.41 0.41 94
20260905043522 12 0.0 0.0 0.00 0.41 0.41 95
20260905042531 13 0.0 0.0 0.00 0.41 0.41 95
20260905041520 13 0.0 0.0 0.00 0.41 0.41 94
20260905040528 13 151 1.6 4.8 0.00 0.41 0.41 93
20260905035556 13 158 3.2 6.4 0.00 0.41 0.41 93
20260905034608 13 0.0 1.6 0.00 0.41 0.41 91
20260905033533 14 158 0.0 4.8 0.00 0.41 0.41 91
20260905032523 14 163 3.2 4.8 0.00 0.43 0.41 90
20260905031531 14 156 4.8 6.4 0.00 0.43 0.41 89
20260905030520 14 105 4.8 6.4 0.00 0.43 0.41 88
20260905025527 14 98 6.4 9.7 0.00 0.43 0.41 88
20260905024536 15 101 8.0 14.5 0.00 0.48 0.41 87
20260905023547 15 94 6.4 8.0 0.00 0.56 0.41 86
20260905022533 15 93 8.0 11.3 0.00 0.61 0.41 85
20260905021542 15 102 8.0 9.7 0.00 0.61 0.41 82
20260905020530 15 85 8.0 16.1 0.00 0.61 0.41 80
20260905015520 15 92 9.7 19.3 0.00 0.61 0.41 79
20260905014548 16 82 9.7 12.9 0.00 0.61 0.41 81
20260905013555 16 59 14.5 19.3 0.00 0.61 0.41 79
20260905012544 16 51 12.9 19.3 0.00 0.61 0.41 79
20260905011533 16 44 12.9 14.5 0.00 0.61 0.41 82
20260905010542 17 50 12.9 14.5 0.00 0.64 0.41 82
20260905005550 17 52 11.3 14.5 0.00 0.64 0.41 80
20260905004542 17 34 11.3 12.9 0.00 0.64 0.41 80
20260905003527 17 19 9.7 11.3 0.00 0.64 0.41 84
20260905002534 16 52 8.0 9.7 0.00 0.64 0.41 85
20260905001524 16 36 8.0 11.3 0.00 0.64 0.41 83
20260905000531 16 47 8.0 11.3 0.00 0.66 0.41 79
20260904235521 16 35 8.0 11.3 0.00 0.66 0.41 80
20260904234530 16 23 8.0 9.7 0.00 0.66 0.41 81
20260904233536 16 60 9.7 12.9 0.00 0.66 0.41 80
20260904232528 17 38 11.3 12.9 0.00 0.66 0.41 78
20260904231533 18 61 9.7 12.9 0.00 0.66 0.41 74
20260904230547 18 62 6.4 11.3 0.00 0.69 0.41 74
20260904225550 17 91 6.4 8.0 0.00 0.71 0.41 75
20260904224520 17 81 4.8 6.4 0.00 0.74 0.41 78
20260904223527 17 99 1.6 4.8 0.00 0.76 0.41 79
20260904222536 16 187 1.6 4.8 0.00 0.76 0.41 82
20260904221548 16 115 1.6 4.8 0.00 0.76 0.41 83
20260904220556 16 178 4.8 6.4 0.00 0.76 0.41 82
20260904215523 16 161 3.2 4.8 0.00 0.81 0.41 84
20260904214531 16 167 6.4 8.0 0.00 0.86 0.41 81
20260904213520 16 162 6.4 11.3 0.00 0.99 0.41 82
20260904212548 16 150 8.0 11.3 0.00 1.02 0.41 81
20260904211535 17 181 14.5 19.3 0.00 1.02 0.41 77
20260904210527 18 94 14.5 16.1 0.00 1.02 0.41 64
20260904205541 18 144 9.7 14.5 0.00 1.02 0.41 66
20260904204522 18 103 8.0 9.7 0.00 1.02 0.41 67
20260904203530 18 92 6.4 9.7 0.00 1.02 0.41 67
20260904202519 18 161 4.8 9.7 0.00 1.02 0.41 69
20260904201527 17 65 6.4 11.3 0.00 1.02 0.41 76
20260904200535 17 54 4.8 9.7 0.00 1.02 0.41 76
20260904195527 17 75 4.8 6.4 0.00 1.02 0.41 79
20260904194556 17 65 3.2 4.8 0.00 1.02 0.41 81
20260904193522 16 169 1.6 4.8 0.00 1.02 0.41 84
20260904192550 16 12 3.2 6.4 0.00 1.02 0.41 85
20260904191520 16 80 6.4 8.0 0.00 1.02 0.41 81
20260904190546 17 203 4.8 8.0 0.00 1.02 0.41 79
20260904185536 17 289 3.2 4.8 0.00 1.02 0.41 77
20260904184524 17 53 6.4 8.0 0.00 1.02 0.41 80
20260904183533 17 54 4.8 6.4 0.00 1.02 0.41 79
20260904182521 16 43 3.2 6.4 0.00 1.02 0.41 81
20260904181530 16 8 6.4 8.0 0.00 1.02 0.41 82
20260904180519 16 7 3.2 6.4 0.00 1.02 0.41 83
20260904175527 16 338 1.6 4.8 0.00 1.02 0.41 85